Location: Ferintosh
(52.7647°N, 112.9692°W)
Time: 15:05:40
(UTC+00:00)

Transit 2A Rocket - Pass Details

Date: 27 May 2024
Orbit: 583 x 910 km, 66.7° (Epoch: 14 June)

Event Time Altitude Azimuth Distance (km) Brightness Sun altitude
Rises 20:11:02 0° 311° (NW) 3,455 8.3 57.7°
Reaches altitude 10° 20:14:22 10° 292° (WNW) 2,554 7.8 57.5°
Maximum altitude 20:17:59 17° 255° (WSW) 2,130 7.8 57.3°
Drops below altitude 10° 20:21:39 10° 217° (SW) 2,590 8.4 57.1°
Sets 20:25:04 0° 198° (SSW) 3,527 8.9 56.9°
